Kiana, AK

8:09 PM AKDT on April 26, 2017 (GMT -0800)
Baker Memorial

Weather History for PAIK - January, 2014

Change the Weather History Date:

Monday, January 20, 2014

  Actual Average (PASK) Record (PASK)
Temperature  
Mean Temperature 24 °F -  
Max Temperature 30 °F 1 °F 37 °F (2008)
Min Temperature 16 °F -8 °F -45 °F (1999)
Degree Days  
Heating Degree Days 41    
Moisture  
Dew Point 19 °F    
Average Humidity 75    
Maximum Humidity 88    
Minimum Humidity 64    
Precipitation  
Precipitation 0.00 in - - ()
Sea Level Pressure  
Sea Level Pressure 29.81 in    
Wind  
Wind Speed 11 mph (East)    
Max Wind Speed 24 mph    
Max Gust Speed 38 mph    
Visibility 9 miles    
Events Snow    
Averages and records for this station are not official NWS values.
T = Trace of Precipitation, MM = Missing Value Source: NWS Daily Summary

Daily Weather History Graph

Daily Weather History Graph

Search for Another Location

Airport or City:

Trip Planner

Search our weather history database for the weather conditions in past years. The results will help you decide how hot, cold, wet, or windy it might be!

Date:

Astronomy

Jan. 20, 2014 Rise Set
Actual Time 11:31 AM AKST 4:14 PM AKST
Civil Twilight 10:12 AM AKST 5:34 PM AKST
Nautical Twilight 9:00 AM AKST 6:46 PM AKST
Astronomical Twilight 7:56 AM AKST 7:50 PM AKST
Moon 11:45 PM AKST (1/20) 11:06 AM AKST (1/20)
Length of Visible Light 7h 21m
Length of Day
4h 42m
Waning Gibbous, 81% of the Moon is Illuminated
Jan 20
Waning Gibbous
Jan 23
Last Quarter
Jan 30
New
Feb 6
First Quarter
Feb 14
Full

Hourly Weather History & Observations

Time (AKST) Temp. Windchill Dew Point Humidity Pressure Visibility Wind Dir Wind Speed Gust Speed Precip Events Conditions
12:01 AM 19.0 °F 8.2 °F 16.0 °F 88% 29.99 in 10.0 mi East 9.2 mph - N/A   Clear
1:01 AM 16.0 °F - 12.9 °F 88% 29.99 in 10.0 mi Calm Calm - N/A   Clear
2:01 AM 17.1 °F 7.6 °F 14.0 °F 88% 29.98 in 10.0 mi ENE 6.9 mph - N/A   Clear
3:01 AM 21.0 °F - 17.1 °F 85% 29.95 in 10.0 mi Calm Calm - N/A   Clear
4:01 AM 19.9 °F - 16.0 °F 85% 29.95 in 10.0 mi Calm Calm - N/A   Clear
5:01 AM 21.0 °F - 16.0 °F 81% 29.93 in 10.0 mi Calm Calm - N/A   Mostly Cloudy
6:01 AM 21.9 °F 11.0 °F 17.1 °F 82% 29.89 in 10.0 mi East 10.4 mph 18.4 mph N/A   Clear
7:01 AM 21.0 °F 12.4 °F 15.1 °F 78% 29.89 in 10.0 mi East 6.9 mph - N/A   Scattered Clouds
8:01 AM 24.1 °F 14.4 °F 17.1 °F 75% 29.87 in 10.0 mi East 9.2 mph 18.4 mph N/A   Overcast
9:01 AM 26.1 °F 12.0 °F 18.0 °F 71% 29.85 in 10.0 mi East 20.7 mph 25.3 mph 0.00 in Snow Light Snow
10:01 AM 27.0 °F 12.2 °F 17.1 °F 66% 29.84 in 9.0 mi East 24.2 mph 38.0 mph 0.00 in Snow Light Snow
11:01 AM 26.1 °F 15.0 °F 17.1 °F 69% 29.85 in 10.0 mi East 12.7 mph 23.0 mph 0.00 in   Mostly Cloudy
12:01 PM 26.1 °F 16.2 °F 17.1 °F 69% 29.86 in 10.0 mi ENE 10.4 mph 16.1 mph N/A   Scattered Clouds
12:55 PM 26.6 °F 13.4 °F 19.4 °F 74% 29.70 in 2.5 mi East 18.4 mph 34.5 mph 0.00 in Snow Light Snow
1:01 PM 26.6 °F 12.0 °F 21.2 °F 80% 29.70 in 1.5 mi East 23.0 mph 34.5 mph 0.00 in Snow Light Snow
1:14 PM 24.8 °F 10.3 °F 21.2 °F 86% 29.69 in 4.0 mi East 20.7 mph 29.9 mph 0.00 in Snow Light Snow
1:23 PM 26.6 °F 13.1 °F 19.4 °F 74% 29.70 in 9.0 mi East 19.6 mph 28.8 mph 0.00 in Snow Light Snow
2:01 PM 26.1 °F 11.6 °F 19.9 °F 78% 29.80 in 9.0 mi East 21.9 mph 28.8 mph 0.00 in Snow Light Snow
3:01 PM 27.0 °F 12.5 °F 21.0 °F 78% 29.79 in 9.0 mi East 23.0 mph 32.2 mph 0.00 in Snow Light Snow
4:01 PM 28.0 °F 15.3 °F 21.0 °F 75% 29.76 in 9.0 mi East 18.4 mph 32.2 mph 0.00 in   Mostly Cloudy
5:01 PM 28.9 °F 15.4 °F 21.0 °F 72% 29.75 in 9.0 mi East 21.9 mph 35.7 mph 0.00 in Snow Light Snow
6:01 PM 30.0 °F 16.9 °F 19.9 °F 66% 29.75 in 10.0 mi East 21.9 mph 31.1 mph 0.00 in   Overcast
7:01 PM 32.0 °F 19.2 °F 21.0 °F 64% 29.77 in 10.0 mi East 23.0 mph 34.5 mph N/A   Overcast
8:01 PM 32.0 °F 21.6 °F 24.1 °F 73% 29.75 in 6.0 mi East 15.0 mph 25.3 mph 0.00 in Snow Light Snow
9:01 PM 32.0 °F 21.2 °F 21.0 °F 64% 29.75 in 10.0 mi East 16.1 mph 25.3 mph 0.00 in   Overcast
10:01 PM 32.0 °F 21.6 °F 21.0 °F 64% 29.73 in 10.0 mi East 15.0 mph 27.6 mph 0.00 in   Overcast
11:01 PM 32.0 °F 21.6 °F 21.0 °F 64% 29.73 in 10.0 mi East 15.0 mph 24.2 mph N/A   Overcast
11:17 PM 32.0 °F 21.2 °F 21.2 °F 64% 29.59 in 9.0 mi East 16.1 mph 21.9 mph 0.00 in Snow Light Snow
11:57 PM 30.2 °F 18.9 °F 24.8 °F 80% 29.58 in 9.0 mi East 16.1 mph 21.9 mph 0.00 in Snow Light Snow